This demonstration page uses our WeatherBlox Daily Observations layout. Learn more.

Left ArrowRight Arrow

Hourly Observations for March 1, 2016

Temp ( °F °C ) Dew Point ( °F °C ) Humidity (%) Winds ( mph kmh ) Pressure ( in mb ) Visibility ( mi km ) Precip ( " mm )
12:53 am 00:53 Clear 39 3.9 31 -0.6 73 73 N N/A 30.02 1017 10 16 N/A
1:53 am 01:53 Clear 40 4.4 32 undefined 73 73 E 5 7 30.01 1016 10 16 N/A
2:53 am 02:53 Clear 38 3.3 31 -0.6 76 76 E 5 7 29.97 1015 10 16 N/A
3:53 am 03:53 Clear 37 2.8 30 -1.1 76 76 E 5 7 29.95 1014 10 16 N/A
4:53 am 04:53 Clear 36 2.2 31 -0.6 82 82 N N/A 29.95 1014 10 16 N/A
5:53 am 05:53 Clear 37 2.8 31 -0.6 79 79 E 5 7 29.93 1014 10 16 N/A
6:53 am 06:53 Clear 36 2.2 31 -0.6 82 82 E 3 6 29.93 1013 10 16 N/A
7:53 am 07:53 Sunny 39 3.9 32 undefined 76 76 E 6 9 29.91 1013 10 16 N/A
8:53 am 08:53 Partly Cloudy 46 7.8 33 0.6 61 61 VRB 5 7 29.87 1011 10 16 N/A
9:53 am 09:53 Mostly Cloudy 48 8.9 33 0.6 56 56 VRB 3 6 29.82 1010 10 16 N/A
10:53 am 10:53 Mostly Cloudy 50 10 35 1.7 57 57 ESE 6 9 29.78 1009 10 16 N/A
11:53 am 11:53 Mostly Cloudy 52 11.1 46 7.8 80 80 VRB 5 7 29.73 1007 10 16 0.04 1.02
12:53 pm 12:53 Cloudy with Light Rain 50 10 43 6.1 77 77 WSW 8 13 29.72 1007 8 13 0.01 0.25
1:28 pm 13:28 Cloudy with Rain 48 8.9 46 7.8 93 93 N N/A 29.71 1006 2 3 0.05 1.27
1:38 pm 13:38 Cloudy with Rain 48 8.9 46 7.8 93 93 S 3 6 29.71 1006 2 2 0.09 2.29
1:51 pm 13:51 Cloudy with Rain 48 9 46 8 94 94 VRB 3 6 29.68 1005 2 3 0.14 3.56
1:53 pm 13:53 Cloudy with Rain 48 8.9 46 7.8 93 93 VRB 3 6 29.66 1004 3 4 0.15 3.81
2:01 pm 14:01 Cloudy with Rain 49 9.4 46 7.8 90 90 VRB 3 6 29.65 1004 3 5 0.02 0.51
2:53 pm 14:53 Cloudy with Rain 51 10.6 49 9.4 92 92 SW 7 11 29.62 1003 3 5 0.09 2.29
2:57 pm 14:57 Cloudy with Rain 51 10.6 49 9.4 92 92 SW 5 7 29.62 1003 3 4 0.01 0.25
3:05 pm 15:05 Cloudy with Rain 51 10.6 49 9.4 92 92 SSW 6 9 29.59 1002 3 4 0.02 0.51
3:12 pm 15:12 Cloudy with Light Rain 52 11.1 49 9.4 89 89 SW 7 11 29.59 1002 6 10 0.02 0.51
3:40 pm 15:40 Cloudy 53 11.7 50 10 89 89 SW 12 19 29.59 1002 10 16 0.02 0.51
3:53 pm 15:53 Cloudy 53 11.7 50 10 89 89 SW 9 15 29.59 1002 10 16 0.02 0.51
4:43 pm 16:43 Cloudy with Light Rain 52 11.1 48 8.9 86 86 WSW 17 28 29.59 1002 10 16 0.01 0.25
4:53 pm 16:53 Cloudy with Light Rain 52 11.1 46 7.8 80 80 W 21 33 29.61 1003 10 16 0.01 0.25
5:53 pm 17:53 Cloudy 48 8.9 42 5.6 80 80 W 25 41 29.66 1004 10 16 N/A
6:28 pm 18:28 Cloudy 41 5 36 2.2 82 82 W 21 33 29.74 1007 10 16 N/A
6:53 pm 18:53 Cloudy 39 3.9 34 1.1 82 82 W 23 37 29.75 1008 10 16 N/A
7:53 pm 19:53 Cloudy 36 2.2 30 -1.1 79 79 W 18 30 29.84 1010 10 16 N/A
8:53 pm 20:53 Cloudy 33 0.6 23 -5 66 66 WNW 29 46 29.91 1013 10 16 N/A
9:53 pm 21:53 Cloudy 31 -0.6 19 -7.2 61 61 NW 22 35 29.95 1014 10 16 N/A
10:53 pm 22:53 Cloudy 31 -0.6 22 -5.6 69 69 WNW 17 28 29.98 1015 10 16 N/A
11:53 pm 23:53 Cloudy 31 -0.6 21 -6.1 67 67 WNW 20 31 30.01 1016 10 16 N/A

Powered by AerisWeather